Location: Unspecified
(41.1637°N, 24.2901°E)
Time: 13:00:32
(UTC+02:00)

ISS - Pass Details

Date: 11 May 2026
Orbit: 414 x 424 km, 51.6° (Epoch: 12 May)

Event Time Altitude Azimuth Distance (km) Brightness Sun altitude
Rises 20:05:47 0° 238° (WSW) 2,339 0.4 -6.7°
Reaches altitude 10° 20:07:53 10° 240° (WSW) 1,480 -0.6 -7.1°
Maximum altitude 20:11:11 72° 326° (NW) 438 -3.5 -7.6°
Drops below altitude 10° 20:14:31 10° 51° (NE) 1,489 -1.1 -8.1°
Sets 20:16:38 0° 53° (NE) 2,355 -0.2 -8.5°
